Location: Coopersdale
(40.3556°N, 78.9372°W)
Time: 03:34:55
(UTC+00:00)

Tiros 1 despin weight - Pass Details

Date: 27 January 2021
Orbit: 593 x 642 km, 48.2° (Epoch: 02 March)

Event Time Altitude Azimuth Distance (km) Brightness Sun altitude
Rises 17:27:33 0° 218° (SW) 2,908 ? 31.4°
Reaches altitude 10° 17:29:58 10° 211° (SSW) 1,997 ? 31.4°
Maximum altitude 17:34:18 42° 141° (SE) 893 ? 31.4°
Drops below altitude 10° 17:38:35 10° 71° (ENE) 1,977 ? 31.3°
Sets 17:40:57 0° 64° (ENE) 2,876 ? 31.3°
